When you browse on this site, cookies collect data to enhance your experience and personalize the content and advertising you see.
Visit our Privacy Policy to learn more. By continuing to use the site, you agree to this use of cookies and data.
  • In Belgium
  • List of Countries
  • For 7 days
  • Water Temperature
  • Weather Map
  • Weather Widgets
  • user-avatar
    Login

    Hourly Weather Kostygovo

    Today, 19 August, Monday

    Time Temperature Precipitation Wind Pressure Humidity
    00:00 +15°C° 0 mm 1 mps 745 mmHg 99%
    01:00 +15°C° 0 mm 1 mps 745 mmHg 98%
    02:00 +15°C° 0 mm 1 mps 745 mmHg 99%
    03:00 +15°C° 0 mm 1 mps 745 mmHg 99%
    04:00 +15°C° 0 mm 1 mps 746 mmHg 99%
    05:00 +15°C° 0 mm 1 mps 746 mmHg 99%
    06:00 +15°C° 0 mm 1 mps 746 mmHg 98%
    07:00 +16°C° 0 mm 1 mps 746 mmHg 97%
    08:00 +17°C° 0 mm 2 mps 747 mmHg 96%
    09:00 +17°C° 0 mm 2 mps 747 mmHg 94%
    10:00 +18°C° 0 mm 2 mps 747 mmHg 92%
    11:00 +18°C° 0 mm 2 mps 748 mmHg 90%
    12:00 +19°C° 0 mm 2 mps 748 mmHg 85%
    13:00 +20°C° 0 mm 2 mps 748 mmHg 80%
    14:00 +21°C° 0 mm 2 mps 748 mmHg 75%
    15:00 +21°C° 0 mm 2 mps 748 mmHg 75%
    16:00 +21°C° 0 mm 2 mps 748 mmHg 75%
    17:00 +21°C° 0 mm 2 mps 748 mmHg 75%
    18:00 +20°C° 0 mm 2 mps 749 mmHg 82%
    19:00 +18°C° 0 mm 2 mps 749 mmHg 88%
    20:00 +16°C° 0 mm 2 mps 749 mmHg 95%
    21:00 +16°C° 0 mm 2 mps 749 mmHg 95%
    22:00 +16°C° 0 mm 2 mps 749 mmHg 95%
    23:00 +16°C° 0 mm 2 mps 749 mmHg 96%

    Tomorrow, 20 August, Tuesday

    Time Temperature Precipitation Wind Pressure Humidity
    00:00 +16°C° 0 mm 2 mps 749 mmHg 96%
    01:00 +16°C° 0 mm 2 mps 749 mmHg 97%
    02:00 +16°C° 0 mm 2 mps 749 mmHg 97%
    03:00 +16°C° 0 mm 2 mps 750 mmHg 98%
    04:00 +16°C° 0 mm 2 mps 750 mmHg 98%
    05:00 +16°C° 0 mm 2 mps 750 mmHg 98%
    06:00 +18°C° 0 mm 2 mps 750 mmHg 95%
    07:00 +19°C° 0 mm 2 mps 750 mmHg 91%
    08:00 +21°C° 0 mm 2 mps 751 mmHg 87%
    09:00 +23°C° 0 mm 2 mps 751 mmHg 83%
    10:00 +24°C° 0 mm 2 mps 751 mmHg 78%
    11:00 +25°C° 0 mm 2 mps 751 mmHg 74%
    12:00 +26°C° 0 mm 2 mps 751 mmHg 73%
    13:00 +26°C° 0 mm 2 mps 751 mmHg 72%
    14:00 +26°C° 0 mm 2 mps 752 mmHg 70%
    15:00 +24°C° 0.2 mm 2 mps 752 mmHg 78%
    16:00 +23°C° 0.2 mm 1 mps 752 mmHg 86%
    17:00 +21°C° 0.2 mm 1 mps 752 mmHg 94%
    18:00 +18°C° 0 mm 0 mps 752 mmHg 95%
    19:00 +17°C° 0 mm 0 mps 752 mmHg 95%
    20:00 +17°C° 0 mm 0 mps 752 mmHg 96%
    21:00 +16°C° 0 mm 0 mps 752 mmHg 96%
    22:00 +16°C° 0 mm 0 mps 753 mmHg 96%
    23:00 +18°C° 0 mm 1 mps 753 mmHg 96%

    Day after tomorrow, 21 August, Wednesday

    Time Temperature Precipitation Wind Pressure Humidity
    00:00 +16°C° 0 mm 1 mps 753 mmHg 96%
    01:00 +16°C° 0 mm 1 mps 753 mmHg 96%
    02:00 +16°C° 0 mm 1 mps 754 mmHg 96%
    03:00 +15°C° 0 mm 1 mps 754 mmHg 96%
    04:00 +15°C° 0 mm 1 mps 754 mmHg 96%
    05:00 +15°C° 0 mm 1 mps 754 mmHg 96%
    06:00 +18°C° 0 mm 1 mps 754 mmHg 92%
    07:00 +19°C° 0 mm 1 mps 754 mmHg 88%
    08:00 +20°C° 0 mm 1 mps 754 mmHg 84%
    09:00 +22°C° 0 mm 1 mps 754 mmHg 80%
    10:00 +23°C° 0 mm 1 mps 754 mmHg 75%
    11:00 +24°C° 0 mm 1 mps 754 mmHg 71%
    12:00 +24°C° 0 mm 1 mps 754 mmHg 73%
    13:00 +24°C° 0 mm 1 mps 753 mmHg 74%
    14:00 +24°C° 0 mm 1 mps 753 mmHg 76%
    15:00 +23°C° 1.2 mm 1 mps 753 mmHg 83%
    16:00 +22°C° 1.2 mm 1 mps 752 mmHg 89%
    17:00 +21°C° 1.2 mm 1 mps 752 mmHg 96%
    18:00 +21°C° 0.8 mm 1 mps 752 mmHg 96%
    19:00 +21°C° 0.8 mm 1 mps 751 mmHg 97%
    20:00 +21°C° 0.8 mm 1 mps 751 mmHg 97%
    21:00 +21°C° 0.1 mm 1 mps 751 mmHg 97%
    22:00 +20°C° 0.1 mm 1 mps 751 mmHg 96%
    23:00 +20°C° 0.1 mm 1 mps 751 mmHg 96%

    22 August, Thursday

    Time Temperature Precipitation Wind Pressure Humidity
    00:00 +19°C° 0.9 mm 2 mps 750 mmHg 97%
    01:00 +19°C° 0.9 mm 2 mps 750 mmHg 97%
    02:00 +19°C° 0.9 mm 2 mps 750 mmHg 98%
    03:00 +19°C° 1.3 mm 2 mps 750 mmHg 98%
    04:00 +19°C° 1.3 mm 2 mps 750 mmHg 98%
    05:00 +19°C° 1.3 mm 2 mps 750 mmHg 98%
    06:00 +18°C° 0.3 mm 2 mps 750 mmHg 98%
    07:00 +18°C° 0.3 mm 2 mps 750 mmHg 97%
    08:00 +18°C° 0.3 mm 3 mps 751 mmHg 96%
    09:00 +17°C° 0.1 mm 3 mps 751 mmHg 95%
    10:00 +17°C° 0.1 mm 3 mps 751 mmHg 95%
    11:00 +16°C° 0.1 mm 3 mps 751 mmHg 94%
    12:00 +16°C° 0.2 mm 3 mps 752 mmHg 94%
    13:00 +17°C° 0.2 mm 2 mps 752 mmHg 93%
    14:00 +17°C° 0.2 mm 2 mps 752 mmHg 93%
    15:00 +17°C° 0 mm 2 mps 752 mmHg 92%
    16:00 +18°C° 0 mm 1 mps 752 mmHg 91%
    17:00 +19°C° 0 mm 1 mps 752 mmHg 90%
    18:00 +18°C° 0 mm 1 mps 752 mmHg 92%
    19:00 +16°C° 0 mm 1 mps 753 mmHg 94%
    20:00 +15°C° 0 mm 1 mps 753 mmHg 96%
    21:00 +15°C° 0 mm 1 mps 753 mmHg 96%
    22:00 +14°C° 0 mm 1 mps 753 mmHg 96%
    23:00 +14°C° 0 mm 1 mps 754 mmHg 96%

    23 August, Friday

    Time Temperature Precipitation Wind Pressure Humidity
    00:00 +13°C° 0 mm 1 mps 754 mmHg 96%
    01:00 +13°C° 0 mm 1 mps 754 mmHg 96%
    02:00 +12°C° 0 mm 1 mps 754 mmHg 95%
    03:00 +12°C° 0 mm 1 mps 754 mmHg 94%
    04:00 +11°C° 0 mm 1 mps 754 mmHg 94%
    05:00 +11°C° 0 mm 1 mps 754 mmHg 93%
    06:00 +13°C° 0 mm 1 mps 754 mmHg 87%
    07:00 +15°C° 0 mm 1 mps 754 mmHg 81%
    08:00 +18°C° 0 mm 1 mps 755 mmHg 75%
    09:00 +19°C° 0 mm 1 mps 754 mmHg 69%
    10:00 +20°C° 0 mm 1 mps 754 mmHg 64%
    11:00 +20°C° 0 mm 2 mps 754 mmHg 58%
    12:00 +21°C° 0 mm 2 mps 754 mmHg 57%
    13:00 +21°C° 0 mm 2 mps 754 mmHg 56%
    14:00 +21°C° 0 mm 2 mps 754 mmHg 55%
    15:00 +20°C° 0.2 mm 2 mps 754 mmHg 63%
    16:00 +20°C° 0.2 mm 2 mps 754 mmHg 70%
    17:00 +19°C° 0.2 mm 2 mps 754 mmHg 78%
    18:00 +17°C° 0 mm 2 mps 754 mmHg 83%
    19:00 +15°C° 0 mm 1 mps 754 mmHg 87%
    20:00 +14°C° 0 mm 1 mps 754 mmHg 91%
    21:00 +13°C° 0 mm 1 mps 754 mmHg 91%
    22:00 +13°C° 0 mm 1 mps 754 mmHg 91%
    23:00 +12°C° 0 mm 1 mps 754 mmHg 91%

    24 August, Saturday

    Time Temperature Precipitation Wind Pressure Humidity
    00:00 +12°C° 0 mm 1 mps 755 mmHg 91%
    01:00 +11°C° 0 mm 1 mps 755 mmHg 92%
    02:00 +11°C° 0 mm 1 mps 755 mmHg 92%
    03:00 +11°C° 0 mm 1 mps 755 mmHg 92%
    04:00 +10°C° 0 mm 1 mps 755 mmHg 92%
    05:00 +10°C° 0 mm 1 mps 755 mmHg 93%
    06:00 +12°C° 0 mm 2 mps 755 mmHg 88%
    07:00 +14°C° 0 mm 2 mps 755 mmHg 83%
    08:00 +16°C° 0 mm 2 mps 755 mmHg 78%
    09:00 +18°C° 0 mm 2 mps 755 mmHg 71%
    10:00 +19°C° 0 mm 2 mps 755 mmHg 64%
    11:00 +21°C° 0 mm 2 mps 755 mmHg 58%
    12:00 +21°C° 0.1 mm 2 mps 755 mmHg 60%
    13:00 +21°C° 0.1 mm 2 mps 755 mmHg 61%
    14:00 +21°C° 0.1 mm 2 mps 755 mmHg 63%
    15:00 +20°C° 0.1 mm 2 mps 755 mmHg 69%
    16:00 +20°C° 0.1 mm 2 mps 755 mmHg 74%
    17:00 +20°C° 0.1 mm 1 mps 755 mmHg 80%
    18:00 +19°C° 0 mm 1 mps 755 mmHg 84%
    19:00 +16°C° 0 mm 1 mps 755 mmHg 88%
    20:00 +14°C° 0 mm 2 mps 755 mmHg 92%
    21:00 +14°C° 0 mm 2 mps 755 mmHg 93%
    22:00 +14°C° 0 mm 2 mps 755 mmHg 94%
    23:00 +13°C° 0 mm 2 mps 755 mmHg 96%
    Show more